This demonstration page uses our WeatherBlox Daily Observations layout. Learn more.

Left ArrowRight Arrow

39.08367, -84.50855

Hourly Observations for November 1, 2015

Temp ( °F °C ) Dew Point ( °F °C ) Humidity (%) Winds ( mph kmh ) Pressure ( in mb ) Visibility ( mi km ) Precip ( " mm )
11:53 am 11:53 Mostly Sunny 63 17 54 12 73 73 SW 6 9 30.00 1016 10 16 0.00 0.00
12:53 pm 12:53 Sunny 64 17.8 53 11.7 68 68 SSW 9 15 30.02 1017 10 16 0.00 0.00
1:53 pm 13:53 Sunny 64 17.8 52 11.1 65 65 S 7 11 30.00 1016 10 16 0.00 0.00
2:53 pm 14:53 Sunny 65 18.3 51 10.6 61 61 SW 6 9 29.99 1016 10 16 0.00 0.00
3:53 pm 15:53 Sunny 64 17.8 52 11.1 65 65 S 6 9 30.01 1016 10 16 0.00 0.00
4:53 pm 16:53 Sunny 61 16.1 53 11.7 75 75 S 5 7 30.03 1017 10 16 0.00 0.00
5:53 pm 17:53 Clear 57 13.9 52 11.1 83 83 SSW 5 7 30.05 1018 10 16 0.00 0.00
6:53 pm 18:53 Cloudy 57 14 48 9 72 72 SW 7 11 29.88 1012 10 16 0.00 0.00
7:53 pm 19:53 Clear 53 11.7 53 11.7 100 100 Calm 30.07 1018 10 16 0.00 0.00
8:53 pm 20:53 Clear 51 10.6 51 10.6 100 100 Calm 30.08 1019 10 16 0.00 0.00
9:53 pm 21:53 Clear 49 9.4 49 9.4 100 100 Calm 30.09 1019 7 11 0.00 0.00
10:53 pm 22:53 Clear with Mist and Fog 49 9.4 49 9.4 100 100 Calm 30.08 1019 4 6 0.00 0.00
11:01 pm 23:01 Clear with Mist and Fog 50 10 50 10 100 100 Calm 30.09 1019 2 3 0.00 0.00
11:16 pm 23:16 Mostly Clear with Mist and Fog 48 9 48 9 100 100 Calm 30.09 1019 2 3 0.00 0.00
11:24 pm 23:24 Mostly Cloudy with Fog 48 8.9 48 8.9 100 100 Calm 30.09 1019 1 1 0.00 0.00
11:28 pm 23:28 Mostly Clear with Mist and Fog 48 9 48 9 100 100 Calm 30.09 1019 1 2 0.00 0.00
11:31 pm 23:31 Mostly Clear with Mist and Fog 49 9.4 49 9.4 100 100 Calm 30.09 1019 4 6 0.00 0.00
11:34 pm 23:34 Mostly Clear with Mist and Fog 48 9 48 9 100 100 Calm 30.09 1019 2 3 0.00 0.00
11:39 pm 23:39 Mostly Cloudy with Mist and Fog 49 9.4 49 9.4 100 100 Calm 30.09 1019 1 1 0.00 0.00
11:47 pm 23:47 Clear with Mist and Fog 48 9 48 9 100 100 Calm 30.09 1019 1 2 0.00 0.00
11:53 pm 23:53 Clear with Fog 48 8.9 48 8.9 100 100 Calm 30.07 1018 1 1 0.00 0.00

Powered by AerisWeather